Time,TemperatureF,DewpointF,PressureIn,WindDirection,WindDirectionDegrees,WindSpeedMPH,WindSpeedGustMPH,Humidity,HourlyPrecipIn,Conditions,Clouds,dailyrainin,SoftwareType,DateUTC
2013-05-24 00:01:00,62.0,32.0,-100.00,East,90,0.0,0.0,31,0.00,,,0.00,,2013-05-24 00:01:00,
2013-05-24 00:12:00,62.0,32.0,-100.00,ENE,65,0.0,0.0,32,0.00,,,0.00,,2013-05-24 00:12:00,
2013-05-24 00:21:00,62.0,34.0,-100.00,ENE,65,0.0,0.0,33,0.00,,,0.00,,2013-05-24 00:21:00,
2013-05-24 00:32:00,62.0,32.0,-100.00,East,85,0.0,0.0,33,0.00,,,0.00,,2013-05-24 00:32:00,
2013-05-24 00:42:00,62.0,34.0,-100.00,ENE,70,0.0,0.0,34,0.00,,,0.00,,2013-05-24 00:42:00,
2013-05-24 00:52:00,61.0,34.0,-100.00,East,80,0.0,0.0,34,0.00,,,0.00,,2013-05-24 00:52:00,
2013-05-24 01:01:00,61.0,34.0,-100.00,East,80,0.0,0.0,36,0.00,,,0.00,,2013-05-24 01:01:00,
2013-05-24 01:12:00,60.0,36.0,-100.00,East,80,0.0,0.0,38,0.00,,,0.00,,2013-05-24 01:12:00,
2013-05-24 01:22:00,60.0,36.0,-100.00,East,80,0.0,0.0,39,0.00,,,0.00,,2013-05-24 01:22:00,
2013-05-24 01:32:00,59.0,36.0,-100.00,ENE,75,0.0,0.0,41,0.00,,,0.00,,2013-05-24 01:32:00,
2013-05-24 01:41:00,59.0,36.0,-100.00,ENE,75,0.0,0.0,42,0.00,,,0.00,,2013-05-24 01:41:00,
2013-05-24 01:52:00,58.0,36.0,-100.00,ENE,75,0.0,0.0,43,0.00,,,0.00,,2013-05-24 01:52:00,
2013-05-24 02:01:00,57.0,36.0,-100.00,ENE,65,0.0,0.0,44,0.00,,,0.00,,2013-05-24 02:01:00,
2013-05-24 02:11:00,57.0,36.0,-100.00,ENE,65,0.0,0.0,42,0.00,,,0.00,,2013-05-24 02:11:00,
2013-05-24 02:21:00,57.0,34.0,-100.00,NE,55,0.0,0.0,41,0.00,,,0.00,,2013-05-24 02:21:00,
2013-05-24 02:32:00,56.0,34.0,-100.00,NE,55,0.0,0.0,40,0.00,,,0.00,,2013-05-24 02:32:00,
2013-05-24 02:42:00,56.0,34.0,-100.00,NE,45,0.0,0.0,42,0.00,,,0.00,,2013-05-24 02:42:00,
2013-05-24 02:52:00,56.0,34.0,-100.00,NE,45,0.0,0.0,41,0.00,,,0.00,,2013-05-24 02:52:00,
2013-05-24 03:02:00,55.0,32.0,-100.00,NE,40,0.0,0.0,42,0.00,,,0.00,,2013-05-24 03:02:00,
2013-05-24 03:11:00,55.0,32.0,-100.00,NE,50,0.0,0.0,40,0.00,,,0.00,,2013-05-24 03:11:00,
2013-05-24 03:21:00,53.0,36.0,-100.00,NE,55,0.0,0.0,52,0.00,,,0.00,,2013-05-24 03:21:00,
2013-05-24 03:33:00,51.0,37.0,-100.00,East,90,0.0,0.0,58,0.00,,,0.00,,2013-05-24 03:33:00,
2013-05-24 03:42:00,52.0,36.0,-100.00,ENE,60,0.0,0.0,52,0.00,,,0.00,,2013-05-24 03:42:00,
2013-05-24 03:53:00,53.0,36.0,-100.00,ENE,65,0.0,0.0,51,0.00,,,0.00,,2013-05-24 03:53:00,
2013-05-24 04:03:00,50.0,37.0,-100.00,ENE,75,0.0,0.0,61,0.00,,,0.00,,2013-05-24 04:03:00,
2013-05-24 04:12:00,50.0,37.0,-100.00,East,80,0.0,0.0,59,0.00,,,0.00,,2013-05-24 04:12:00,
2013-05-24 04:22:00,51.0,37.0,-100.00,East,80,0.0,0.0,59,0.00,,,0.00,,2013-05-24 04:22:00,
2013-05-24 04:33:00,51.0,37.0,-100.00,ENE,75,0.0,0.0,58,0.00,,,0.00,,2013-05-24 04:33:00,
2013-05-24 04:42:00,51.0,37.0,-100.00,ENE,75,0.0,0.0,59,0.00,,,0.00,,2013-05-24 04:42:00,
2013-05-24 04:52:00,50.0,37.0,-100.00,ENE,70,0.0,0.0,59,0.00,,,0.00,,2013-05-24 04:52:00,
2013-05-24 05:02:00,50.0,36.0,-100.00,ENE,75,0.0,0.0,59,0.00,,,0.00,,2013-05-24 05:02:00,
2013-05-24 05:12:00,49.0,37.0,-100.00,ENE,75,0.0,0.0,61,0.00,,,0.00,,2013-05-24 05:12:00,
2013-05-24 05:22:00,49.0,36.0,-100.00,ENE,75,0.0,0.0,59,0.00,,,0.00,,2013-05-24 05:22:00,
2013-05-24 05:32:00,49.0,36.0,-100.00,ENE,70,0.0,0.0,58,0.00,,,0.00,,2013-05-24 05:32:00,
2013-05-24 05:42:00,49.0,34.0,-100.00,ENE,75,0.0,0.0,54,0.00,,,0.00,,2013-05-24 05:42:00,
2013-05-24 05:52:00,49.0,32.0,-100.00,East,80,0.0,0.0,52,0.00,,,0.00,,2013-05-24 05:52:00,
2013-05-24 06:02:00,48.0,32.0,-100.00,East,80,0.0,0.0,53,0.00,,,0.00,,2013-05-24 06:02:00,
2013-05-24 06:12:00,47.0,32.0,-100.00,East,80,0.0,0.0,56,0.00,,,0.00,,2013-05-24 06:12:00,
2013-05-24 06:21:00,47.0,32.0,-100.00,East,90,0.0,0.0,55,0.00,,,0.00,,2013-05-24 06:21:00,
2013-05-24 06:32:00,47.0,32.0,-100.00,East,95,0.0,0.0,56,0.00,,,0.00,,2013-05-24 06:32:00,
2013-05-24 06:41:00,46.0,32.0,-100.00,ESE,110,0.0,0.0,58,0.00,,,0.00,,2013-05-24 06:41:00,
2013-05-24 06:52:00,46.0,34.0,-100.00,SE,140,0.0,0.0,62,0.00,,,0.00,,2013-05-24 06:52:00,
2013-05-24 07:01:00,46.0,34.0,-100.00,SSE,150,0.0,0.0,64,0.00,,,0.00,,2013-05-24 07:01:00,
2013-05-24 07:11:00,45.0,34.0,-100.00,ESE,120,0.0,0.0,64,0.00,,,0.00,,2013-05-24 07:11:00,
2013-05-24 07:22:00,45.0,32.0,-100.00,ESE,110,0.0,0.0,62,0.00,,,0.00,,2013-05-24 07:22:00,
2013-05-24 07:32:00,44.0,34.0,-100.00,ESE,115,0.0,0.0,67,0.00,,,0.00,,2013-05-24 07:32:00,
2013-05-24 07:42:00,45.0,34.0,-100.00,ESE,115,0.0,0.0,62,0.00,,,0.00,,2013-05-24 07:42:00,
2013-05-24 07:52:00,45.0,32.0,-100.00,East,95,0.0,0.0,60,0.00,,,0.00,,2013-05-24 07:52:00,
2013-05-24 08:02:00,45.0,32.0,-100.00,ENE,75,0.0,0.0,61,0.00,,,0.00,,2013-05-24 08:02:00,
2013-05-24 08:11:00,42.0,34.0,-100.00,East,90,0.0,0.0,69,0.00,,,0.00,,2013-05-24 08:11:00,
2013-05-24 08:22:00,42.0,34.0,-100.00,East,85,0.0,0.0,68,0.00,,,0.00,,2013-05-24 08:22:00,
2013-05-24 08:32:00,42.0,34.0,-100.00,ENE,75,0.0,0.0,69,0.00,,,0.00,,2013-05-24 08:32:00,
2013-05-24 08:42:00,42.0,34.0,-100.00,ENE,65,0.0,0.0,70,0.00,,,0.00,,2013-05-24 08:42:00,
2013-05-24 08:51:00,41.0,32.0,-100.00,ENE,60,0.0,0.0,71,0.00,,,0.00,,2013-05-24 08:51:00,
2013-05-24 09:01:00,41.0,34.0,-100.00,ENE,70,0.0,0.0,73,0.00,,,0.00,,2013-05-24 09:01:00,
2013-05-24 09:11:00,40.0,34.0,-100.00,ENE,70,0.0,0.0,73,0.00,,,0.00,,2013-05-24 09:11:00,
2013-05-24 09:21:00,40.0,32.0,-100.00,ENE,75,0.0,0.0,73,0.00,,,0.00,,2013-05-24 09:21:00,
2013-05-24 09:32:00,40.0,32.0,-100.00,ENE,70,0.0,0.0,74,0.00,,,0.00,,2013-05-24 09:32:00,
2013-05-24 09:42:00,41.0,32.0,-100.00,ENE,75,0.0,0.0,70,0.00,,,0.00,,2013-05-24 09:42:00,
2013-05-24 09:52:00,40.0,32.0,-100.00,ENE,65,0.0,0.0,73,0.00,,,0.00,,2013-05-24 09:52:00,
2013-05-24 10:02:00,41.0,32.0,-100.00,ENE,70,0.0,0.0,71,0.00,,,0.00,,2013-05-24 10:02:00,
2013-05-24 10:12:00,40.0,32.0,-100.00,ENE,75,0.0,0.0,72,0.00,,,0.00,,2013-05-24 10:12:00,
2013-05-24 10:22:00,40.0,32.0,-100.00,East,85,0.0,0.0,72,0.00,,,0.00,,2013-05-24 10:22:00,
2013-05-24 10:32:00,40.0,32.0,-100.00,East,90,0.0,0.0,74,0.00,,,0.00,,2013-05-24 10:32:00,
2013-05-24 10:42:00,40.0,32.0,-100.00,East,80,0.0,0.0,72,0.00,,,0.00,,2013-05-24 10:42:00,
2013-05-24 10:52:00,39.0,32.0,-100.00,East,80,0.0,0.0,74,0.00,,,0.00,,2013-05-24 10:52:00,
2013-05-24 11:02:00,40.0,32.0,-100.00,East,85,0.0,0.0,73,0.00,,,0.00,,2013-05-24 11:02:00,
2013-05-24 11:12:00,41.0,32.0,-100.00,East,90,0.0,0.0,72,0.00,,,0.00,,2013-05-24 11:12:00,
2013-05-24 11:22:00,41.0,32.0,-100.00,East,100,0.0,0.0,71,0.00,,,0.00,,2013-05-24 11:22:00,
2013-05-24 11:32:00,41.0,32.0,-100.00,East,95,0.0,0.0,70,0.00,,,0.00,,2013-05-24 11:32:00,
2013-05-24 11:42:00,42.0,34.0,-100.00,East,95,0.0,0.0,71,0.00,,,0.00,,2013-05-24 11:42:00,
2013-05-24 11:51:00,42.0,34.0,-100.00,East,95,0.0,0.0,72,0.00,,,0.00,,2013-05-24 11:51:00,
2013-05-24 12:02:00,43.0,36.0,-100.00,East,90,0.0,0.0,72,0.00,,,0.00,,2013-05-24 12:02:00,
2013-05-24 12:11:00,44.0,36.0,-100.00,East,85,0.0,0.0,71,0.00,,,0.00,,2013-05-24 12:11:00,
2013-05-24 12:21:00,44.0,36.0,-100.00,East,100,0.0,0.0,69,0.00,,,0.00,,2013-05-24 12:21:00,
2013-05-24 12:32:00,45.0,36.0,-100.00,East,100,0.0,0.0,68,0.00,,,0.00,,2013-05-24 12:32:00,
2013-05-24 12:42:00,46.0,36.0,-100.00,East,100,0.0,0.0,68,0.00,,,0.00,,2013-05-24 12:42:00,
2013-05-24 12:52:00,47.0,36.0,-100.00,ESE,120,0.0,0.0,65,0.00,,,0.00,,2013-05-24 12:52:00,
2013-05-24 13:02:00,48.0,37.0,-100.00,SE,130,0.0,0.0,66,0.00,,,0.00,,2013-05-24 13:02:00,
2013-05-24 13:11:00,49.0,36.0,-100.00,SE,135,0.0,0.0,61,0.00,,,0.00,,2013-05-24 13:11:00,
2013-05-24 13:21:00,50.0,39.0,-100.00,SE,130,0.0,0.0,63,0.00,,,0.00,,2013-05-24 13:21:00,
2013-05-24 13:32:00,51.0,37.0,-100.00,SE,130,0.0,0.0,60,0.00,,,0.00,,2013-05-24 13:32:00,
2013-05-24 13:41:00,51.0,37.0,-100.00,SE,135,0.0,0.0,58,0.00,,,0.00,,2013-05-24 13:41:00,
2013-05-24 13:52:00,52.0,37.0,-100.00,ESE,110,0.0,0.0,56,0.00,,,0.00,,2013-05-24 13:52:00,
2013-05-24 14:01:00,53.0,37.0,-100.00,SSE,150,0.0,0.0,53,0.00,,,0.00,,2013-05-24 14:01:00,
2013-05-24 14:11:00,53.0,39.0,-100.00,SE,125,0.0,0.0,57,0.00,,,0.00,,2013-05-24 14:11:00,
2013-05-24 14:21:00,54.0,37.0,-100.00,SE,125,0.0,0.0,54,0.00,,,0.00,,2013-05-24 14:21:00,
2013-05-24 14:31:00,55.0,37.0,-100.00,SSE,150,0.0,0.0,52,0.00,,,0.00,,2013-05-24 14:31:00,
2013-05-24 14:42:00,56.0,39.0,-100.00,SSE,150,0.0,0.0,55,0.00,,,0.00,,2013-05-24 14:42:00,
2013-05-24 14:52:00,57.0,41.0,-100.00,SE,145,0.0,0.0,54,0.00,,,0.00,,2013-05-24 14:52:00,
2013-05-24 15:02:00,56.0,39.0,-100.00,SE,135,0.0,0.0,52,0.00,,,0.00,,2013-05-24 15:02:00,
2013-05-24 15:11:00,57.0,41.0,-100.00,SE,140,0.0,0.0,52,0.00,,,0.00,,2013-05-24 15:11:00,
2013-05-24 15:21:00,59.0,41.0,-100.00,SSE,165,0.0,0.0,50,0.00,,,0.00,,2013-05-24 15:21:00,
2013-05-24 15:32:00,58.0,39.0,-100.00,SE,145,0.0,0.0,47,0.00,,,0.00,,2013-05-24 15:32:00,
2013-05-24 15:43:00,59.0,39.0,-100.00,SE,145,0.0,0.0,48,0.00,,,0.00,,2013-05-24 15:43:00,
2013-05-24 15:52:00,59.0,39.0,-100.00,SE,135,0.0,0.0,47,0.00,,,0.00,,2013-05-24 15:52:00,
2013-05-24 16:03:00,60.0,41.0,-100.00,SE,145,0.0,0.0,47,0.00,,,0.00,,2013-05-24 16:03:00,
2013-05-24 16:12:00,60.0,39.0,-100.00,SE,135,0.0,0.0,46,0.00,,,0.00,,2013-05-24 16:12:00,
2013-05-24 16:22:00,62.0,39.0,-100.00,SSE,165,0.0,0.0,42,0.00,,,0.00,,2013-05-24 16:22:00,
2013-05-24 16:32:00,62.0,37.0,-100.00,SSE,155,0.0,0.0,40,0.00,,,0.00,,2013-05-24 16:32:00,
2013-05-24 16:42:00,62.0,36.0,-100.00,SSE,150,0.0,0.0,38,0.00,,,0.00,,2013-05-24 16:42:00,
2013-05-24 16:52:00,62.0,37.0,-100.00,SSE,165,0.0,0.0,39,0.00,,,0.00,,2013-05-24 16:52:00,
2013-05-24 17:02:00,63.0,37.0,-100.00,SSE,165,0.0,0.0,38,0.00,,,0.00,,2013-05-24 17:02:00,
2013-05-24 17:12:00,63.0,37.0,-100.00,SSE,155,0.0,0.0,38,0.00,,,0.00,,2013-05-24 17:12:00,
2013-05-24 17:22:00,64.0,39.0,-100.00,South,170,0.0,0.0,39,0.00,,,0.00,,2013-05-24 17:22:00,
2013-05-24 17:32:00,64.0,39.0,-100.00,SSE,150,0.0,0.0,39,0.00,,,0.00,,2013-05-24 17:32:00,
2013-05-24 17:41:00,65.0,37.0,-100.00,SE,145,0.0,0.0,36,0.00,,,0.00,,2013-05-24 17:41:00,
2013-05-24 17:52:00,65.0,37.0,-100.00,SSE,160,0.0,0.0,35,0.00,,,0.00,,2013-05-24 17:52:00,
2013-05-24 18:01:00,66.0,37.0,-100.00,SE,140,0.0,0.0,36,0.00,,,0.00,,2013-05-24 18:01:00,
2013-05-24 18:11:00,65.0,37.0,-100.00,SSE,165,0.0,0.0,36,0.00,,,0.00,,2013-05-24 18:11:00,
2013-05-24 18:21:00,64.0,37.0,-100.00,South,180,0.0,0.0,38,0.00,,,0.00,,2013-05-24 18:21:00,
2013-05-24 18:32:00,65.0,36.0,-100.00,SE,140,0.0,0.0,33,0.00,,,0.00,,2013-05-24 18:32:00,
2013-05-24 18:41:00,66.0,37.0,-100.00,SE,145,0.0,0.0,35,0.00,,,0.00,,2013-05-24 18:41:00,
2013-05-24 18:51:00,66.0,39.0,-100.00,ESE,120,0.0,0.0,36,0.00,,,0.00,,2013-05-24 18:51:00,
2013-05-24 19:01:00,66.0,39.0,-100.00,SE,145,0.0,0.0,36,0.00,,,0.00,,2013-05-24 19:01:00,
2013-05-24 19:11:00,66.0,39.0,-100.00,SSE,160,0.0,0.0,36,0.00,,,0.00,,2013-05-24 19:11:00,
2013-05-24 19:21:00,67.0,39.0,-100.00,SSE,160,0.0,0.0,35,0.00,,,0.00,,2013-05-24 19:21:00,
2013-05-24 19:32:00,66.0,39.0,-100.00,SE,125,0.0,0.0,37,0.00,,,0.00,,2013-05-24 19:32:00,
2013-05-24 19:41:00,67.0,39.0,-100.00,SE,135,0.0,0.0,35,0.00,,,0.00,,2013-05-24 19:41:00,
2013-05-24 19:52:00,67.0,37.0,-100.00,SE,145,0.0,0.0,33,0.00,,,0.00,,2013-05-24 19:52:00,
2013-05-24 20:02:00,68.0,39.0,-100.00,SE,130,0.0,0.0,34,0.00,,,0.00,,2013-05-24 20:02:00,
2013-05-24 20:11:00,67.0,37.0,-100.00,South,175,0.0,0.0,32,0.00,,,0.00,,2013-05-24 20:11:00,
2013-05-24 20:21:00,68.0,39.0,-100.00,SSE,160,0.0,0.0,34,0.00,,,0.00,,2013-05-24 20:21:00,
2013-05-24 20:32:00,68.0,39.0,-100.00,SSE,150,0.0,0.0,34,0.00,,,0.00,,2013-05-24 20:32:00,
2013-05-24 20:41:00,68.0,37.0,-100.00,SE,145,0.0,0.0,33,0.00,,,0.00,,2013-05-24 20:41:00,
2013-05-24 20:51:00,68.0,39.0,-100.00,SSE,155,0.0,0.0,33,0.00,,,0.00,,2013-05-24 20:51:00,
2013-05-24 21:01:00,68.0,39.0,-100.00,SSE,165,0.0,0.0,34,0.00,,,0.00,,2013-05-24 21:01:00,
2013-05-24 21:11:00,68.0,39.0,-100.00,SSE,165,0.0,0.0,34,0.00,,,0.00,,2013-05-24 21:11:00,
2013-05-24 21:21:00,68.0,37.0,-100.00,SSE,155,0.0,0.0,33,0.00,,,0.00,,2013-05-24 21:21:00,
2013-05-24 21:32:00,68.0,39.0,-100.00,SSE,165,0.0,0.0,35,0.00,,,0.00,,2013-05-24 21:32:00,
2013-05-24 21:42:00,67.0,41.0,-100.00,SSE,165,0.0,0.0,38,0.00,,,0.00,,2013-05-24 21:42:00,
2013-05-24 21:52:00,68.0,41.0,-100.00,SE,140,0.0,0.0,38,0.00,,,0.00,,2013-05-24 21:52:00,
2013-05-24 22:02:00,67.0,43.0,-100.00,SSE,150,0.0,0.0,40,0.00,,,0.00,,2013-05-24 22:02:00,
2013-05-24 22:12:00,67.0,41.0,-100.00,SE,135,0.0,0.0,39,0.00,,,0.00,,2013-05-24 22:12:00,
2013-05-24 22:22:00,67.0,41.0,-100.00,South,175,0.0,0.0,39,0.00,,,0.00,,2013-05-24 22:22:00,
2013-05-24 22:33:00,67.0,43.0,-100.00,South,170,0.0,0.0,41,0.00,,,0.00,,2013-05-24 22:33:00,
2013-05-24 22:42:00,66.0,45.0,-100.00,SSE,165,0.0,0.0,45,0.00,,,0.00,,2013-05-24 22:42:00,
2013-05-24 22:52:00,65.0,46.0,-100.00,SSE,150,0.0,0.0,49,0.00,,,0.00,,2013-05-24 22:52:00,
2013-05-24 23:02:00,65.0,45.0,-100.00,SE,140,0.0,0.0,48,0.00,,,0.00,,2013-05-24 23:02:00,
2013-05-24 23:11:00,65.0,46.0,-100.00,SE,140,6.0,20.0,52,0.00,,,0.00,,2013-05-24 23:11:00,
2013-05-24 23:22:00,64.0,48.0,-100.00,ESE,120,0.0,2.0,54,0.00,,,0.00,,2013-05-24 23:22:00,
2013-05-24 23:32:00,64.0,46.0,-100.00,SE,125,1.0,4.0,54,0.00,,,0.00,,2013-05-24 23:32:00,
2013-05-24 23:42:00,63.0,48.0,-100.00,ESE,115,0.0,21.0,60,0.00,,,0.00,,2013-05-24 23:42:00,
2013-05-24 23:52:00,62.0,50.0,-100.00,ESE,105,0.0,0.0,63,0.00,,,0.00,,2013-05-24 23:52:00,